Location: Zlin
(49.2330°N, 17.6670°E)
Time: 00:52:44
(UTC+01:00)

First-Move - Visible Passes

Search period start: 03 February 2023 00:00
Search period end: 13 February 2023 00:00
Orbit: 566 x 650 km, 97.7° (Epoch: 02 February)

Date Brightness Start Highest point End Pass type
(mag) Time Alt. Az. Time Alt. Az. Time Alt. Az.
09 Feb ? 03:38:30 10° NNE 03:38:33 10° NNE 03:38:33 10° NNE visible
10 Feb ? 03:52:07 10° N 03:52:27 12° N 03:52:27 12° N visible
11 Feb ? 04:05:45 10° N 04:06:19 14° N 04:06:19 14° N visible
12 Feb ? 04:19:24 10° N 04:20:10 14° N 04:20:10 14° N visible
